Denver, CO

12:24 PM MDT on April 27, 2017 (GMT -0600)
Front Range

Weather History for KFTG - August, 2014

Change the Weather History Date:

Monday, August 11, 2014

  Actual Average (KBKF) Record (KBKF)
Temperature  
Mean Temperature 70 °F -  
Max Temperature 84 °F 82 °F 93 °F (2000)
Min Temperature 55 °F 56 °F 51 °F (1996)
Cooling Degree Days 4    
Growing Degree Days 20 (Base 50)    
Moisture  
Dew Point 52 °F    
Average Humidity 68    
Maximum Humidity 88    
Minimum Humidity 23    
Precipitation  
Precipitation 0.00 in - - ()
Sea Level Pressure  
Sea Level Pressure 30.36 in    
Wind  
Wind Speed 6 mph (South)    
Max Wind Speed 13 mph    
Max Gust Speed -    
Visibility 10 miles    
Events      
Averages and records for this station are not official NWS values.
T = Trace of Precipitation, MM = Missing Value Source: NWS Daily Summary

Daily Weather History Graph

Daily Weather History Graph

Search for Another Location

Airport or City:

Trip Planner

Search our weather history database for the weather conditions in past years. The results will help you decide how hot, cold, wet, or windy it might be!

Date:

Astronomy

Aug. 11, 2014 Rise Set
Actual Time 6:06 AM MDT 7:59 PM MDT
Civil Twilight 5:37 AM MDT 8:28 PM MDT
Nautical Twilight 5:01 AM MDT 9:04 PM MDT
Astronomical Twilight 4:23 AM MDT 9:42 PM MDT
Moon 8:29 PM MDT (8/11) 7:14 AM MDT (8/11)
Length of Visible Light 14h 51m
Length of Day
13h 53m
Full, 98% of the Moon is Illuminated
Aug 11
Full
Aug 17
Last Quarter
Aug 25
New
Sep 2
First Quarter
Sep 8
Full

Hourly Weather History & Observations

Time (MDT) Temp. Dew Point Humidity Pressure Visibility Wind Dir Wind Speed Gust Speed Precip Events Conditions
12:35 AM 64.4 °F 53.6 °F 68% 30.39 in 10.0 mi SSW 8.1 mph - N/A   Clear
12:55 AM 62.6 °F 53.6 °F 72% 30.39 in 10.0 mi South 5.8 mph - N/A   Clear
1:16 AM 60.8 °F 53.6 °F 77% 30.39 in 10.0 mi SSW 6.9 mph - N/A   Clear
1:29 AM 59.0 °F 53.6 °F 82% 30.39 in 10.0 mi SSW 5.8 mph - N/A   Clear
2:12 AM 60.8 °F 53.6 °F 77% 30.39 in 10.0 mi SE 4.6 mph - N/A   Clear
2:36 AM 59.0 °F 53.6 °F 82% 30.39 in 10.0 mi SSE 8.1 mph - N/A   Clear
3:11 AM 59.0 °F 53.6 °F 82% 30.38 in 10.0 mi South 5.8 mph - N/A   Clear
3:34 AM 59.0 °F 53.6 °F 82% 30.38 in 10.0 mi South 4.6 mph - N/A   Clear
3:53 AM 57.2 °F 51.8 °F 82% 30.38 in 10.0 mi South 4.6 mph - N/A   Clear
4:14 AM 57.2 °F 51.8 °F 82% 30.37 in 10.0 mi South 5.8 mph - N/A   Clear
4:29 AM 57.2 °F 51.8 °F 82% 30.37 in 10.0 mi South 5.8 mph - N/A   Clear
4:39 AM 57.2 °F 51.8 °F 82% 30.37 in 10.0 mi South 4.6 mph - N/A   Clear
5:17 AM 55.4 °F 51.8 °F 88% 30.37 in 10.0 mi SSE 5.8 mph - N/A   Clear
5:36 AM 55.4 °F 51.8 °F 88% 30.36 in 10.0 mi South 3.5 mph - N/A   Clear
8:52 AM 68.0 °F 55.4 °F 64% 30.39 in 30.0 mi SSW 9.2 mph - N/A   Clear
10:47 AM 75.2 °F 55.4 °F 50% 30.40 in 30.0 mi WSW 5.8 mph - N/A   Partly Cloudy
12:50 PM 80.6 °F 46.4 °F 30% 30.39 in 30.0 mi SE 3.5 mph - N/A   Scattered Clouds
2:48 PM 82.4 °F 42.8 °F 25% 30.36 in 30.0 mi Calm Calm - N/A   Mostly Cloudy
3:50 PM 84.2 °F 42.8 °F 23% 30.34 in 30.0 mi South 4.6 mph - N/A   Mostly Cloudy
9:13 PM 68.0 °F 53.6 °F 60% 30.33 in 10.0 mi South 4.6 mph - N/A   Clear
9:37 PM 64.4 °F 55.4 °F 73% 30.33 in 10.0 mi South 5.8 mph - N/A   Clear
9:53 PM 64.4 °F 55.4 °F 73% 30.33 in 10.0 mi South 5.8 mph - N/A   Clear
10:16 PM 64.4 °F 53.6 °F 68% 30.33 in 10.0 mi South 8.1 mph - N/A   Clear
10:36 PM 68.0 °F 53.6 °F 60% 30.33 in 10.0 mi SSW 10.4 mph - N/A   Clear
10:55 PM 68.0 °F 53.6 °F 60% 30.33 in 10.0 mi SSW 11.5 mph - N/A   Clear
11:36 PM 68.0 °F 51.8 °F 56% 30.33 in 10.0 mi SSW 12.7 mph - N/A   Clear
11:52 PM 68.0 °F 51.8 °F 56% 30.32 in 10.0 mi SSW 12.7 mph - N/A   Clear